This demonstration page uses our WeatherBlox Daily Observations layout. Learn more.

Left ArrowRight Arrow

Hourly Observations for August 23, 2019

Temp ( °F °C ) Dew Point ( °F °C ) Humidity (%) Winds ( mph kmh ) Pressure ( in mb ) Visibility ( mi km ) Precip ( " mm )
12:15 am 00:15 Mostly Cloudy 68 20.1 68 20.1 100 100 ENE 5 7 30.02 1016 10 16 0.00 0.00
12:35 am 00:35 Clear 67 19.6 67 19.6 100 100 NE 5 7 30.02 1017 10 16 0.00 0.00
12:55 am 00:55 Partly Cloudy 67 19.3 67 19.3 100 100 NE 5 7 30.03 1017 10 16 0.00 0.00
1:15 am 01:15 Cloudy 67 19.2 67 19.2 100 100 NNE 3 6 30.03 1017 10 16 0.00 0.00
1:35 am 01:35 Cloudy 66 19.1 66 19.1 100 100 NE 6 9 30.04 1017 10 16 0.00 0.00
1:55 am 01:55 Partly Cloudy 66 18.8 66 18.8 100 100 NNE 6 9 30.04 1017 10 16 0.00 0.00
2:15 am 02:15 Clear 65 18.3 65 18.3 100 100 NNE 5 7 30.04 1017 10 16 0.00 0.00
2:35 am 02:35 Clear 64 18 64 18 100 100 NE 5 7 30.04 1017 10 16 0.00 0.00
2:55 am 02:55 Clear 64 18 64 18 100 100 NE 6 9 30.05 1018 10 16 0.00 0.00
3:15 am 03:15 Mostly Cloudy 64 17.7 64 17.7 100 100 NE 5 7 30.05 1018 10 16 0.00 0.00
3:35 am 03:35 Partly Cloudy 64 17.6 64 17.6 100 100 NE 7 11 30.04 1017 10 16 0.00 0.00
3:55 am 03:55 Clear 63 17.4 63 17.4 100 100 NE 6 9 30.05 1017 10 16 0.00 0.00
4:15 am 04:15 Clear 63 17.1 63 17.1 100 100 NE 6 9 30.05 1017 10 16 0.00 0.00
4:35 am 04:35 Clear 63 17 63 17 100 100 NE 6 9 30.05 1017 7 11 0.00 0.00
4:55 am 04:55 Clear 62 16.7 62 16.7 100 100 NNE 7 11 30.05 1018 7 11 0.00 0.00
5:15 am 05:15 Clear 62 16.6 62 16.6 100 100 NNE 8 13 30.06 1018 7 11 0.00 0.00
5:35 am 05:35 Clear with Mist and Fog 62 16.5 62 16.5 100 100 NE 6 9 30.06 1018 5 8 0.00 0.00
5:55 am 05:55 Clear with Mist and Fog 61 16.2 61 16.2 100 100 NNE 8 13 30.07 1018 5 8 0.00 0.00
6:15 am 06:15 Clear with Mist and Fog 61 16.1 61 16.1 100 100 NE 6 9 30.08 1019 5 8 0.00 0.00
6:35 am 06:35 Mostly Cloudy with Mist and Fog 61 16 61 16 100 100 NNE 9 15 30.08 1019 5 8 0.00 0.00
6:55 am 06:55 Partly Cloudy with Mist and Fog 60 15.7 60 15.7 100 100 NE 7 11 30.09 1019 5 8 0.00 0.00
7:15 am 07:15 Sunny with Mist and Fog 60 15.5 60 15.5 100 100 NNE 7 11 30.10 1019 5 8 0.00 0.00
7:35 am 07:35 Sunny 60 15.5 60 15.5 100 100 NE 7 11 30.10 1019 7 11 0.00 0.00
7:55 am 07:55 Sunny 60 15.3 60 15.3 100 100 NE 7 11 30.12 1020 7 11 0.00 0.00
8:15 am 08:15 Sunny 60 15.6 60 15.6 100 100 NE 5 7 30.13 1020 7 11 0.00 0.00
8:35 am 08:35 Sunny 62 16.4 62 16.4 100 100 NE 5 7 30.13 1020 10 16 0.00 0.00
8:55 am 08:55 Sunny 62 16.8 62 16.8 100 100 NE 8 13 30.13 1020 10 16 0.00 0.00
9:15 am 09:15 Sunny 63 17.4 63 17.4 100 100 ENE 8 13 30.13 1020 10 16 0.00 0.00
9:35 am 09:35 Sunny 64 18 64 17.9 99 99 ENE 5 7 30.13 1020 10 16 0.00 0.00
9:55 am 09:55 Sunny 65 18.4 64 17.8 96 96 ENE 6 9 30.13 1020 10 16 0.00 0.00
10:15 am 10:15 Sunny 67 19.2 64 18 93 93 ENE 6 9 30.13 1020 10 16 0.00 0.00
10:35 am 10:35 Sunny 67 19.3 63 17.3 88 88 E 7 11 30.14 1021 10 16 0.00 0.00
10:55 am 10:55 Sunny 68 20.2 64 17.8 86 86 E 7 11 30.14 1021 10 16 0.00 0.00
11:15 am 11:15 Sunny 69 20.8 64 17.5 82 82 E 7 11 30.13 1020 10 16 0.00 0.00
11:35 am 11:35 Partly Cloudy 70 21.2 63 17.4 79 79 E 8 13 30.14 1021 10 16 0.00 0.00
11:55 am 11:55 Partly Cloudy 70 21.1 63 17.4 80 80 E 8 13 30.14 1021 10 16 0.00 0.00
12:15 pm 12:15 Mostly Cloudy 70 21.2 63 17.2 78 78 E 9 15 30.14 1021 10 16 0.00 0.00
12:35 pm 12:35 Partly Cloudy 71 21.8 63 17 74 74 E 9 15 30.14 1021 10 16 0.00 0.00
12:55 pm 12:55 Mostly Cloudy 72 22.2 62 16.8 72 72 ENE 8 13 30.14 1021 10 16 0.00 0.00
1:15 pm 13:15 Partly Cloudy 72 22.1 60 15.8 68 68 ENE 8 13 30.14 1021 10 16 0.00 0.00
1:35 pm 13:35 Partly Cloudy 72 22.2 62 16.4 70 70 NNE 8 13 30.13 1020 10 16 0.00 0.00
1:55 pm 13:55 Partly Cloudy 71 21.7 60 15.7 69 69 NE 10 17 30.13 1020 10 16 0.00 0.00
2:15 pm 14:15 Mostly Cloudy 72 22.4 60 15.8 66 66 NNE 12 19 30.13 1020 10 16 0.00 0.00
2:35 pm 14:35 Partly Cloudy 73 22.9 61 16.1 66 66 NE 10 17 30.13 1020 10 16 0.00 0.00
2:55 pm 14:55 Partly Cloudy 71 21.6 58 14.7 65 65 NNE 9 15 30.13 1020 10 16 0.00 0.00
3:15 pm 15:15 Partly Cloudy 73 23 58 14.6 59 59 ENE 5 7 30.12 1020 10 16 0.00 0.00
3:35 pm 15:35 Mostly Cloudy 74 23.1 60 15.7 63 63 NE 13 20 30.12 1020 10 16 0.00 0.00
3:55 pm 15:55 Mostly Cloudy 73 22.7 59 14.9 62 62 NE 10 17 30.12 1020 10 16 0.00 0.00
4:15 pm 16:15 Partly Cloudy 71 21.6 58 14.4 64 64 ENE 6 9 30.12 1020 10 16 0.00 0.00
4:35 pm 16:35 Mostly Cloudy 72 22.4 60 15.6 66 66 NE 8 13 30.12 1020 10 16 0.00 0.00
4:55 pm 16:55 Mostly Cloudy 72 22.4 58 14.6 61 61 NE 10 17 30.12 1020 10 16 0.00 0.00
5:15 pm 17:15 Partly Cloudy 73 22.7 58 14.6 60 60 NE 7 11 30.12 1020 10 16 0.00 0.00
5:35 pm 17:35 Partly Cloudy 73 22.7 58 14.6 60 60 NE 8 13 30.11 1020 10 16 0.00 0.00
5:55 pm 17:55 Sunny 73 22.5 57 13.7 58 58 NNE 8 13 30.12 1020 10 16 0.00 0.00
6:15 pm 18:15 Sunny 72 22.2 57 14.1 60 60 NE 9 15 30.11 1020 10 16 0.00 0.00
6:35 pm 18:35 Partly Cloudy 73 22.5 59 15.2 63 63 NNE 9 15 30.11 1020 10 16 0.00 0.00
6:55 pm 18:55 Partly Cloudy 71 21.4 57 14.1 63 63 NE 10 17 30.12 1020 10 16 0.00 0.00
7:15 pm 19:15 Sunny 70 21.1 58 14.5 66 66 NE 10 17 30.11 1020 10 16 0.00 0.00
7:35 pm 19:35 Sunny 69 20.6 58 14.3 67 67 NE 9 15 30.12 1020 10 16 0.00 0.00
7:55 pm 19:55 Sunny 68 19.9 58 14.4 71 71 NE 7 11 30.13 1020 10 16 0.00 0.00
8:15 pm 20:15 Sunny 66 19 59 15 78 78 NE 7 11 30.14 1021 10 16 0.00 0.00
8:35 pm 20:35 Clear 64 17.9 60 15.6 87 87 NE 6 9 30.13 1020 10 16 0.00 0.00
8:55 pm 20:55 Clear 64 17.5 60 15.5 88 88 ENE 5 7 30.14 1021 10 16 0.00 0.00
9:15 pm 21:15 Clear 63 17.1 60 15.5 90 90 ENE 5 7 30.16 1021 10 16 0.00 0.00
9:35 pm 21:35 Clear 60 15.7 60 15.7 100 100 NE 3 6 30.17 1022 10 16 0.00 0.00
9:55 pm 21:55 Clear 60 15.4 60 15.4 100 100 NE 3 6 30.18 1022 10 16 0.00 0.00
10:15 pm 22:15 Clear 59 14.8 59 14.8 100 100 NE 3 6 30.18 1022 10 16 0.00 0.00
10:35 pm 22:35 Clear 60 15.5 60 15.4 99 99 ENE 5 7 30.18 1022 10 16 0.00 0.00
10:55 pm 22:55 Clear 60 15.7 59 15 96 96 ENE 3 6 30.20 1023 10 16 0.00 0.00
11:15 pm 23:15 Clear 59 15 59 15 100 100 ENE 5 7 30.19 1022 10 16 0.00 0.00
11:35 pm 23:35 Clear 58 14.7 58 14.7 100 100 NE 3 6 30.20 1023 10 16 0.00 0.00
11:55 pm 23:55 Clear 58 14.5 58 14.5 100 100 Calm 30.21 1023 10 16 0.00 0.00

Powered by AerisWeather